TJS-12

导读 | 豆包AI

TJS-12即通信技术试验卫星十二号,是中国于2024年12月20日23时12分,在西昌卫星发射中心,通过长征三号乙运载火箭发射升空的试验卫星。卫星顺利进入预定轨道,发射任务取得圆满成功,该卫星主要用于开展卫星通信、广播电视、数据传输业务,并完成相关空间技术试验验证,是长征系列运载火箭的第554次飞行任务。

基本信息
目录编号:
62374
目录名称:
TJS-12
国际标识:
2024-246A
轨道中心:
EARTH
卫星名称:
TJS-12
卫星全名:
TJS-12
卫星状态:
在轨 (已飞行496 天)
发射日期:
2024-12-20 UTC
国别 :
中国 (CN)
星等 :
--
轨道信息
数据来源 国际轨道数据 AOE轨道数据
星历时间 2026-04-30T15:14:50+0800
12小时前
查看轨道信息
2026-04-30T23:00:00+0800
4小时前
查看轨道信息
半长轴 42163.663km 42163.271km
偏心率 0.0002544 0.0002006
轨道倾角 0.778° 0.777°
近地点辐角 67.051° 65.418°
升交点赤经 295.179° 295.222°
平近点角 111.192° 229.397°
近地点 35774.799km 35776.676km
远地点 35796.253km 35793.592km
周期 1436.042分钟 1436.022分钟
每日圈数 1.002756 1.00277
详细信息
使用方式:
暂无
2D轨道图
3D轨道图
轨道高度分析图
轨道倾角分析图
轨道综合分析图
查看轨道综合分析图